Wind_Speed
65 67 68 69 69 69 70 70 69 70 69 69 69 69 68 67 67 66 66 66 66 65 65 65 64 64 65
67 67 67 67 68 68 69 69 70 71 72 73 73 73 72 71 71 71 70 70 69 70 70 71 71 70 70
68 68 69 69 70 70 71 71 72 73 73 74 74 75 75 75 76 75 75 75 76 76 77 78 78 78 77
69 69 69 69 70 70 71 70 71 71 72 73 73 73 74 74 75 76 76 76 76 76 78 78 79 79 79
68 69 70 70 71 71 72 71 71 71 72 73 74 75 76 77 77 77 78 79 80 80 80 80 81 82 82
69 71 72 73 74 75 76 77 78 79 80 80 81 82 83 83 84 84 84 84 85 85 85 85 85 84 84
66 68 70 71 73 75 76 76 77 78 79 79 82 82 83 82 83 84 85 85 85 85 86 87 88 88 88
68 69 71 72 73 74 74 75 75 75 77 76 77 78 79 80 80 80 82 82 83 83 83 84 85 85 85
70 70 70 71 73 75 75 76 75 74 75 76 75 76 77 78 79 80 80 81 81 82 82 82 82 83 82
70 69 70 70 71 72 73 73 74 74 74 77 77 78 78 78 78 79 80 81 82 83 83 83 83 84 84
57 58 58 59 59 60 61 62 63 63 64 67 67 67 68 69 69 70 72 75 79 80 82 83 83 84 84
52 54 56 57 58 60 61 62 62 63 63 65 65 66 65 64 64 64 64 66 67 67 68 69 70 72 76
53 55 56 57 58 60 61 62 62 63 64 66 67 68 68 67 67 67 67 67 68 68 69 68 67 68 67
57 58 59 60 62 63 65 66 66 67 68 69 71 72 72 72 72 71 71 71 71 73 73 70 70 70 69
57 58 59 61 62 63 64 65 66 67 68 70 71 72 73 74 74 74 74 74 74 74 74 74 73 72 73
56 57 58 60 61 63 64 66 66 67 68 70 72 74 75 74 75 74 75 75 76 75 74 74 72 72 72
57 58 60 61 62 64 66 68 69 71 72 73 75 77 79 79 78 79 79 79 79 79 79 78 77 73 73
Wind_Direction
261 261 261 261 261 261 262 262 262 263 263 263 263 264 264 264 264 264 264 264 264 264 263 262 262 264 265
259 259 260 260 261 261 262 263 263 264 264 263 263 263 263 263 264 264 264 263 263 263 264 264 264 265 267
259 259 259 259 260 260 260 260 260 261 261 262 262 263 263 263 263 264 264 264 263 264 264 264 265 266 267
260 260 261 261 261 261 262 262 262 263 263 263 263 264 263 264 263 264 264 264 264 264 265 265 266 266 266
264 265 265 265 265 266 267 267 267 267 267 267 267 266 266 266 265 265 265 264 264 264 264 265 265 266 265
267 267 267 267 267 267 267 267 268 267 267 268 268 268 267 267 267 267 267 266 266 266 266 265 265 265 264
270 269 269 269 268 268 268 268 268 268 267 267 267 267 267 267 266 266 266 266 266 266 265 265 265 266 266
269 269 269 269 269 269 269 269 269 268 268 268 268 268 268 268 267 266 266 266 266 266 266 266 267 267 266
269 269 270 271 271 271 271 271 269 269 269 270 268 268 268 267 267 268 267 266 266 266 267 267 267 267 266
271 271 272 272 272 272 272 272 272 271 271 270 268 268 267 268 268 268 268 268 267 266 266 265 265 264 265
275 275 275 276 276 276 276 276 275 275 274 273 273 272 272 272 271 271 272 271 270 269 269 268 266 265 264
278 279 278 278 277 276 276 275 275 275 274 275 274 275 274 273 273 272 272 272 271 271 271 270 270 270 269
277 276 275 276 276 276 276 276 275 275 275 275 275 274 274 274 273 273 272 271 272 271 270 270 270 270 270
277 277 277 277 276 276 275 275 275 275 275 274 274 273 273 273 272 272 271 271 270 271 270 269 270 270 269
279 279 279 278 278 278 278 277 277 277 276 276 275 274 273 273 273 272 272 271 270 270 271 270 270 269 270
281 281 281 281 281 281 280 280 280 279 279 278 278 277 276 275 274 273 272 272 272 271 271 270 269 270 269
285 285 285 285 285 285 284 284 283 282 280 279 278 278 277 276 274 273 272 271 271 270 270 270 269 268 269
Height
5714 5715 5717 5718 5719 5721 5722 5724 5725 5726 5727 5728 5730 5731 5732 5734 5735 5737 5739 5739 5741 5743 5745 5747 5748 5750 5752
5696 5697 5699 5701 5702 5703 5704 5706 5708 5710 5711 5712 5713 5714 5715 5717 5718 5720 5721 5722 5724 5726 5728 5729 5731 5732 5734
5678 5679 5681 5682 5684 5685 5686 5687 5689 5690 5692 5693 5694 5695 5697 5698 5700 5701 5703 5704 5704 5706 5708 5710 5712 5714 5715
5662 5662 5664 5665 5666 5668 5668 5669 5670 5671 5672 5673 5674 5675 5677 5678 5680 5681 5682 5683 5685 5686 5687 5689 5691 5693 5694
5645 5646 5647 5647 5648 5649 5650 5651 5650 5653 5653 5654 5655 5656 5657 5658 5659 5660 5661 5662 5663 5665 5667 5668 5670 5671 5673
5627 5627 5627 5628 5629 5629 5630 5631 5632 5634 5633 5634 5635 5634 5635 5637 5637 5638 5639 5640 5641 5643 5644 5645 5646 5648 5650
5609 5608 5609 5609 5610 5608 5609 5610 5610 5610 5612 5613 5610 5612 5612 5614 5614 5614 5615 5616 5617 5618 5619 5620 5621 5623 5625
5590 5589 5589 5588 5589 5588 5588 5588 5589 5588 5588 5591 5586 5587 5588 5589 5590 5590 5590 5591 5592 5593 5594 5595 5596 5597 5600
5571 5571 5570 5568 5567 5567 5566 5567 5568 5567 5564 5565 5566 5564 5565 5566 5565 5565 5566 5566 5568 5569 5569 5570 5570 5572 5575
5553 5552 5550 5549 5548 5546 5546 5546 5545 5546 5543 5543 5542 5541 5543 5543 5542 5541 5541 5541 5542 5542 5543 5544 5545 5548 5550
5534 5533 5533 5532 5531 5529 5527 5526 5526 5526 5523 5519 5521 5520 5519 5520 5520 5519 5518 5516 5517 5518 5517 5518 5519 5521 5524
5521 5519 5517 5516 5514 5512 5511 5509 5507 5507 5505 5502 5501 5499 5499 5500 5500 5500 5500 5497 5496 5497 5495 5495 5496 5496 5497
5506 5505 5502 5500 5498 5496 5493 5491 5490 5489 5487 5485 5482 5480 5479 5480 5480 5479 5479 5479 5476 5475 5474 5475 5476 5475 5476
5491 5488 5486 5484 5482 5478 5476 5474 5472 5471 5468 5466 5463 5460 5459 5459 5458 5459 5458 5458 5456 5453 5452 5456 5455 5454 5454
5474 5472 5469 5467 5464 5460 5457 5455 5453 5451 5448 5445 5442 5439 5438 5437 5436 5436 5435 5434 5431 5430 5430 5431 5433 5432 5432
5458 5455 5452 5449 5446 5442 5438 5435 5432 5429 5426 5423 5418 5414 5413 5414 5412 5412 5411 5409 5407 5406 5406 5406 5410 5410 5409
5440 5437 5433 5430 5426 5422 5418 5414 5410 5406 5403 5399 5394 5389 5386 5385 5388 5385 5385 5383 5381 5381 5380 5380 5383 5390 5386